Time,TemperatureF,DewpointF,PressureIn,WindDirection,WindDirectionDegrees,WindSpeedMPH,WindSpeedGustMPH,Humidity,HourlyPrecipIn,Conditions,Clouds,dailyrainin,SolarRadiationWatts/m^2,SoftwareType,DateUTC
2013-01-29 00:02:00,31.0,21.0,-100.00,WNW,294,3.0,13.0,65,0.00,,,-99.99,0.000000,,2013-01-29 08:02:00,
2013-01-29 00:11:00,31.0,21.0,-100.00,WNW,294,3.0,13.0,65,0.00,,,-99.99,0.000000,,2013-01-29 08:11:00,
2013-01-29 00:21:00,31.0,21.0,-100.00,WNW,294,3.0,13.0,65,0.00,,,-99.99,0.000000,,2013-01-29 08:21:00,
2013-01-29 00:31:00,31.0,21.0,-100.00,WNW,294,3.0,13.0,65,0.00,,,-99.99,0.000000,,2013-01-29 08:31:00,
2013-01-29 01:01:00,31.0,21.0,-100.00,SSE,163,2.0,12.0,67,0.00,,,-99.99,0.000000,,2013-01-29 09:01:00,
2013-01-29 01:11:00,31.0,21.0,-100.00,SSE,163,2.0,12.0,67,0.00,,,-99.99,0.000000,,2013-01-29 09:11:00,
2013-01-29 01:21:00,31.0,21.0,-100.00,SSE,163,2.0,12.0,67,0.00,,,-99.99,0.000000,,2013-01-29 09:21:00,
2013-01-29 01:31:00,31.0,21.0,-100.00,SSE,163,2.0,12.0,67,0.00,,,-99.99,0.000000,,2013-01-29 09:31:00,
2013-01-29 02:01:00,30.0,21.0,-100.00,SE,138,1.0,9.0,69,0.00,,,-99.99,0.000000,,2013-01-29 10:01:00,
2013-01-29 02:11:00,30.0,21.0,-100.00,SE,138,1.0,9.0,69,0.00,,,-99.99,0.000000,,2013-01-29 10:11:00,
2013-01-29 02:21:00,30.0,21.0,-100.00,SE,138,1.0,9.0,69,0.00,,,-99.99,0.000000,,2013-01-29 10:21:00,
2013-01-29 02:32:00,30.0,21.0,-100.00,SE,138,1.0,9.0,69,0.00,,,-99.99,0.000000,,2013-01-29 10:32:00,
2013-01-29 03:01:00,30.0,21.0,-100.00,NNW,338,2.0,6.0,70,0.00,,,-99.99,0.000000,,2013-01-29 11:01:00,
2013-01-29 03:11:00,30.0,21.0,-100.00,NNW,338,2.0,6.0,70,0.00,,,-99.99,0.000000,,2013-01-29 11:11:00,
2013-01-29 03:21:00,30.0,21.0,-100.00,NNW,338,2.0,6.0,70,0.00,,,-99.99,0.000000,,2013-01-29 11:21:00,
2013-01-29 03:31:00,30.0,21.0,-100.00,NNW,338,2.0,6.0,70,0.00,,,-99.99,0.000000,,2013-01-29 11:31:00,
2013-01-29 03:52:00,32.0,22.0,-100.00,North,356,3.0,9.0,65,0.00,,,-99.99,0.000000,,2013-01-29 11:52:00,
2013-01-29 04:02:00,32.0,22.0,-100.00,North,356,3.0,9.0,65,0.00,,,-99.99,0.000000,,2013-01-29 12:02:00,
2013-01-29 04:12:00,32.0,22.0,-100.00,North,356,3.0,9.0,65,0.00,,,-99.99,0.000000,,2013-01-29 12:12:00,
2013-01-29 04:22:00,32.0,22.0,-100.00,North,356,3.0,9.0,65,0.00,,,-99.99,0.000000,,2013-01-29 12:22:00,
2013-01-29 04:32:00,32.0,22.0,-100.00,North,356,3.0,9.0,65,0.00,,,-99.99,0.000000,,2013-01-29 12:32:00,
2013-01-29 05:01:00,32.0,20.0,-100.00,East,89,3.0,12.0,62,0.00,,,-99.99,0.000000,,2013-01-29 13:01:00,
2013-01-29 05:11:00,32.0,20.0,-100.00,East,89,3.0,12.0,62,0.00,,,-99.99,0.000000,,2013-01-29 13:11:00,
2013-01-29 05:22:00,32.0,20.0,-100.00,East,89,3.0,12.0,62,0.00,,,-99.99,0.000000,,2013-01-29 13:22:00,
2013-01-29 05:31:00,32.0,20.0,-100.00,East,89,3.0,12.0,62,0.00,,,-99.99,0.000000,,2013-01-29 13:31:00,
2013-01-29 06:02:00,34.0,23.0,-100.00,NW,326,3.0,10.0,63,0.00,,,-99.99,0.000000,,2013-01-29 14:02:00,
2013-01-29 06:12:00,34.0,23.0,-100.00,NW,326,3.0,10.0,63,0.00,,,-99.99,0.000000,,2013-01-29 14:12:00,
2013-01-29 06:21:00,34.0,23.0,-100.00,NW,326,3.0,10.0,63,0.00,,,-99.99,0.000000,,2013-01-29 14:21:00,
2013-01-29 06:32:00,34.0,23.0,-100.00,NW,326,3.0,10.0,63,0.00,,,-99.99,0.000000,,2013-01-29 14:32:00,
2013-01-29 07:02:00,32.0,22.0,-100.00,NW,326,4.0,9.0,67,0.00,,,-99.99,0.000000,,2013-01-29 15:02:00,
2013-01-29 07:12:00,32.0,22.0,-100.00,NW,326,4.0,9.0,67,0.00,,,-99.99,0.000000,,2013-01-29 15:12:00,
2013-01-29 07:22:00,32.0,22.0,-100.00,NW,326,4.0,9.0,67,0.00,,,-99.99,0.000000,,2013-01-29 15:22:00,
2013-01-29 07:32:00,32.0,22.0,-100.00,NW,326,4.0,9.0,67,0.00,,,-99.99,0.000000,,2013-01-29 15:32:00,
2013-01-29 08:02:00,37.0,25.0,-100.00,North,6,6.0,22.0,61,0.00,,,-99.99,1.000000,,2013-01-29 16:02:00,
2013-01-29 08:12:00,37.0,25.0,-100.00,North,6,6.0,22.0,61,0.00,,,-99.99,1.000000,,2013-01-29 16:12:00,
2013-01-29 08:22:00,37.0,25.0,-100.00,North,6,6.0,22.0,61,0.00,,,-99.99,1.000000,,2013-01-29 16:22:00,
2013-01-29 08:32:00,37.0,25.0,-100.00,North,6,6.0,22.0,61,0.00,,,-99.99,1.000000,,2013-01-29 16:32:00,
2013-01-29 09:03:00,37.0,24.0,-100.00,NNW,347,5.0,25.0,58,0.00,,,0.00,42.000000,,2013-01-29 17:03:00,
2013-01-29 09:12:00,37.0,24.0,-100.00,NNW,347,5.0,25.0,58,0.00,,,0.00,42.000000,,2013-01-29 17:12:00,
2013-01-29 09:21:00,37.0,24.0,-100.00,NNW,347,5.0,25.0,58,0.00,,,0.00,42.000000,,2013-01-29 17:21:00,
2013-01-29 09:32:00,37.0,24.0,-100.00,NNW,347,5.0,25.0,58,0.00,,,0.00,42.000000,,2013-01-29 17:32:00,
2013-01-29 10:03:00,39.0,24.0,-100.00,East,100,3.0,13.0,55,0.00,,,0.00,98.000000,,2013-01-29 18:03:00,
2013-01-29 10:12:00,39.0,24.0,-100.00,East,100,3.0,13.0,55,0.00,,,0.00,98.000000,,2013-01-29 18:12:00,
2013-01-29 10:22:00,39.0,24.0,-100.00,East,100,3.0,13.0,55,0.00,,,0.00,98.000000,,2013-01-29 18:22:00,
2013-01-29 10:33:00,39.0,24.0,-100.00,East,100,3.0,13.0,55,0.00,,,0.00,98.000000,,2013-01-29 18:33:00,
2013-01-29 11:02:00,44.0,26.0,-100.00,North,7,5.0,14.0,48,0.01,,,0.01,341.000000,,2013-01-29 19:02:00,
2013-01-29 11:11:00,44.0,26.0,-100.00,North,7,5.0,14.0,48,0.01,,,0.01,341.000000,,2013-01-29 19:11:00,
2013-01-29 11:22:00,44.0,26.0,-100.00,North,7,5.0,14.0,48,0.01,,,0.01,341.000000,,2013-01-29 19:22:00,
2013-01-29 11:31:00,44.0,26.0,-100.00,North,7,5.0,14.0,48,0.01,,,0.01,341.000000,,2013-01-29 19:31:00,
2013-01-29 12:02:00,46.0,27.0,-100.00,NNW,339,5.0,17.0,47,0.08,,,0.09,444.000000,,2013-01-29 20:02:00,
2013-01-29 12:12:00,46.0,27.0,-100.00,NNW,339,5.0,17.0,47,0.08,,,0.09,444.000000,,2013-01-29 20:12:00,
2013-01-29 12:22:00,46.0,27.0,-100.00,NNW,339,5.0,17.0,47,0.08,,,0.09,444.000000,,2013-01-29 20:22:00,
2013-01-29 12:32:00,46.0,27.0,-100.00,NNW,339,5.0,17.0,47,0.08,,,0.09,444.000000,,2013-01-29 20:32:00,
2013-01-29 13:02:00,47.0,27.0,-100.00,North,5,5.0,17.0,46,0.00,,,0.09,528.000000,,2013-01-29 21:02:00,
2013-01-29 13:12:00,47.0,27.0,-100.00,North,5,5.0,17.0,46,0.00,,,0.09,528.000000,,2013-01-29 21:12:00,
2013-01-29 13:22:00,47.0,27.0,-100.00,North,5,5.0,17.0,46,0.00,,,0.09,528.000000,,2013-01-29 21:22:00,
2013-01-29 13:32:00,47.0,27.0,-100.00,North,5,5.0,17.0,46,0.00,,,0.09,528.000000,,2013-01-29 21:32:00,
2013-01-29 14:02:00,46.0,27.0,-100.00,North,349,3.0,14.0,48,0.00,,,0.09,284.000000,,2013-01-29 22:02:00,
2013-01-29 14:12:00,46.0,27.0,-100.00,North,349,3.0,14.0,48,0.00,,,0.09,284.000000,,2013-01-29 22:12:00,
2013-01-29 14:21:00,46.0,27.0,-100.00,North,349,3.0,14.0,48,0.00,,,0.09,284.000000,,2013-01-29 22:21:00,
2013-01-29 14:32:00,46.0,27.0,-100.00,North,349,3.0,14.0,48,0.00,,,0.09,284.000000,,2013-01-29 22:32:00,
2013-01-29 15:02:00,46.0,28.0,-100.00,NNW,335,5.0,14.0,49,0.00,,,0.09,148.000000,,2013-01-29 23:02:00,
2013-01-29 15:12:00,46.0,28.0,-100.00,NNW,335,5.0,14.0,49,0.00,,,0.09,148.000000,,2013-01-29 23:12:00,
2013-01-29 15:22:00,46.0,28.0,-100.00,NNW,335,5.0,14.0,49,0.00,,,0.09,148.000000,,2013-01-29 23:22:00,
2013-01-29 15:32:00,46.0,28.0,-100.00,NNW,335,5.0,14.0,49,0.00,,,0.09,148.000000,,2013-01-29 23:32:00,
2013-01-29 16:02:00,45.0,27.0,-100.00,NNW,344,4.0,13.0,50,0.00,,,0.09,151.000000,,2013-01-30 00:02:00,
2013-01-29 16:11:00,45.0,27.0,-100.00,NNW,344,4.0,13.0,50,0.00,,,0.09,151.000000,,2013-01-30 00:11:00,
2013-01-29 16:22:00,45.0,27.0,-100.00,NNW,344,4.0,13.0,50,0.00,,,0.09,151.000000,,2013-01-30 00:22:00,
2013-01-29 16:32:00,45.0,27.0,-100.00,NNW,344,4.0,13.0,50,0.00,,,0.09,151.000000,,2013-01-30 00:32:00,
2013-01-29 17:01:00,42.0,26.0,-100.00,NNW,337,4.0,14.0,52,0.00,,,0.09,42.000000,,2013-01-30 01:01:00,
2013-01-29 17:11:00,42.0,26.0,-100.00,NNW,337,4.0,14.0,52,0.00,,,0.09,42.000000,,2013-01-30 01:11:00,
2013-01-29 17:22:00,42.0,26.0,-100.00,NNW,337,4.0,14.0,52,0.00,,,0.09,42.000000,,2013-01-30 01:22:00,
2013-01-29 17:31:00,42.0,26.0,-100.00,NNW,337,4.0,14.0,52,0.00,,,0.09,42.000000,,2013-01-30 01:31:00,
2013-01-29 18:02:00,40.0,25.0,-100.00,NNW,335,4.0,15.0,55,0.00,,,0.09,6.000000,,2013-01-30 02:02:00,
2013-01-29 18:12:00,40.0,25.0,-100.00,NNW,335,4.0,15.0,55,0.00,,,0.09,6.000000,,2013-01-30 02:12:00,
2013-01-29 18:21:00,40.0,25.0,-100.00,NNW,335,4.0,15.0,55,0.00,,,0.09,6.000000,,2013-01-30 02:21:00,
2013-01-29 18:33:00,40.0,25.0,-100.00,NNW,335,4.0,15.0,55,0.00,,,0.09,6.000000,,2013-01-30 02:33:00,
2013-01-29 19:02:00,38.0,25.0,-100.00,SW,219,2.0,18.0,59,0.00,,,0.09,0.000000,,2013-01-30 03:02:00,
2013-01-29 19:11:00,38.0,25.0,-100.00,SW,219,2.0,18.0,59,0.00,,,0.09,0.000000,,2013-01-30 03:11:00,
2013-01-29 19:22:00,38.0,25.0,-100.00,SW,219,2.0,18.0,59,0.00,,,0.09,0.000000,,2013-01-30 03:22:00,
2013-01-29 19:31:00,38.0,25.0,-100.00,SW,219,2.0,18.0,59,0.00,,,0.09,0.000000,,2013-01-30 03:31:00,
2013-01-29 20:02:00,36.0,24.0,-100.00,NNW,337,5.0,13.0,62,0.00,,,0.09,0.000000,,2013-01-30 04:02:00,
2013-01-29 20:11:00,36.0,24.0,-100.00,NNW,337,5.0,13.0,62,0.00,,,0.09,0.000000,,2013-01-30 04:11:00,
2013-01-29 20:22:00,36.0,24.0,-100.00,NNW,337,5.0,13.0,62,0.00,,,0.09,0.000000,,2013-01-30 04:22:00,
2013-01-29 20:31:00,36.0,24.0,-100.00,NNW,337,5.0,13.0,62,0.00,,,0.09,0.000000,,2013-01-30 04:31:00,
2013-01-29 21:03:00,34.0,26.0,-100.00,NNW,335,4.0,11.0,72,0.00,,,0.09,0.000000,,2013-01-30 05:03:00,
2013-01-29 21:11:00,34.0,26.0,-100.00,NNW,335,4.0,11.0,72,0.00,,,0.09,0.000000,,2013-01-30 05:11:00,
2013-01-29 21:22:00,34.0,26.0,-100.00,NNW,335,4.0,11.0,72,0.00,,,0.09,0.000000,,2013-01-30 05:22:00,
2013-01-29 21:32:00,34.0,26.0,-100.00,NNW,335,4.0,11.0,72,0.00,,,0.09,0.000000,,2013-01-30 05:32:00,
2013-01-29 21:52:00,30.0,25.0,-100.00,NE,55,1.0,8.0,82,0.00,,,0.09,0.000000,,2013-01-30 05:52:00,
2013-01-29 22:02:00,30.0,25.0,-100.00,NE,55,1.0,8.0,82,0.00,,,0.09,0.000000,,2013-01-30 06:02:00,
2013-01-29 22:11:00,30.0,25.0,-100.00,NE,55,1.0,8.0,82,0.00,,,0.09,0.000000,,2013-01-30 06:11:00,
2013-01-29 22:21:00,30.0,25.0,-100.00,NE,55,1.0,8.0,82,0.00,,,0.09,0.000000,,2013-01-30 06:21:00,
2013-01-29 22:31:00,30.0,25.0,-100.00,NE,55,1.0,8.0,82,0.00,,,0.09,0.000000,,2013-01-30 06:31:00,
2013-01-29 23:01:00,28.0,25.0,-100.00,NW,316,1.0,4.0,87,0.00,,,0.09,0.000000,,2013-01-30 07:01:00,
2013-01-29 23:11:00,28.0,25.0,-100.00,NW,316,1.0,4.0,87,0.00,,,0.09,0.000000,,2013-01-30 07:11:00,
2013-01-29 23:21:00,28.0,25.0,-100.00,NW,316,1.0,4.0,87,0.00,,,0.09,0.000000,,2013-01-30 07:21:00,
2013-01-29 23:31:00,28.0,25.0,-100.00,NW,316,1.0,4.0,87,0.00,,,0.09,0.000000,,2013-01-30 07:31:00,